Weather Roundup
Issued by NWS Chicago, IL

Home | Current Version | Previous Version | Graphics & Text | Print | Product List | Glossary On
Versions: 1 2 3 4 5 6 7 8 9 10 11 12 13 14 15 16 17 18 19 20 21 22 23 24 25 26 27 28 29 30 31 32 33 34 35 36 37 38 39 40 41 42 43 44 45 46 47 48 49 50
000
NZUS59 KLOT 211210
HRRLOT

CHICAGO AREA WEATHER ROUNDUP
NATIONAL WEATHER SERVICE CHICAGO/ROMEOVILLE IL
600 AM CST SUN DEC 21 2014

NOTE: "FAIR" INDICATES FEW OR NO CLOUDS BELOW 12,000 FEET WITH NO
SIGNIFICANT WEATHER AND/OR OBSTRUCTIONS TO VISIBILITY.

* THESE STATIONS ARE NOT UNDER NWS QUALITY CONTROL. THEY ALSO MAY NOT
  REPORT WEATHER SUCH AS PRECIPITATION OR FOG.

ILZ005-006-012>014-019>023-211300-
NORTHEAST ILLINOIS

CITY           SKY/WX    TMP DP  RH WIND       PRES   REMARKS
OHARE          CLOUDY    32  27  81 S8        30.20F WCI  25
6HR MIN TEMP:  31; 6HR MAX TEMP:  32; 6HR PCP: TRACE;

MIDWAY         CLOUDY    34  27  75 S10       30.22S WCI  26
6HR MIN TEMP:  34; 6HR MAX TEMP:  34;

AURORA         CLOUDY    33  28  81 SE9       30.20S HAZE    WCI  25
6HR MIN TEMP:  32; 6HR MAX TEMP:  33;

LANSING*       CLOUDY    32  27  82 S7        30.23F WCI  26
JOLIET*        CLOUDY    32  28  84 SE7       30.22S WCI  26
WAUKEGAN       CLOUDY    32  26  78 S7        30.19S WCI  26
6HR MIN TEMP:  31; 6HR MAX TEMP:  32;

DUPAGE AIRPORT CLOUDY    32  28  85 S9        30.19S WCI  24
6HR MIN TEMP:  32; 6HR MAX TEMP:  32;

WHEELING       CLOUDY    33  27  78 S9        30.22F WCI  25
6HR MIN TEMP:  32; 6HR MAX TEMP:  33;

KANKAKEE*      CLOUDY    32  28  86 S5        30.24S WCI  27
MORRIS*        CLOUDY    32  31  95 SE7       30.20F WCI  26
LEWIS AIRPORT* CLOUDY    32  28  87 S10       30.21F WCI  23
NORTHERLY IS     N/A     33  26  76 S5          N/A  WCI  29
$$

WIZ051-052-058>065-066-070>072-211300-
SOUTHEAST WISCONSIN

CITY           SKY/WX    TMP DP  RH WIND       PRES   REMARKS
MILWAUKEE      CLOUDY    32  26  78 S7        30.19S WCI  26
6HR MIN TEMP:  32; 6HR MAX TEMP:  32;

KENOSHA*       CLOUDY    32  27  81 S8        30.19S WCI  25
RACINE*        CLOUDY    33  26  75 S10       30.20S WCI  25
BURLINGTON     CLOUDY    30  27  89 S5        30.18R WCI  25
WAUKESHA       DRIZZLE   28  27  93 S7        30.18S FOG     WCI  21
WEST BEND      CLOUDY    32  27  80 S3        30.17R
$$

INZ001>003-010>013-019-020-211300-
NORTHWEST INDIANA

CITY           SKY/WX    TMP DP  RH WIND       PRES   REMARKS
GARY*          CLOUDY    34  25  69 SE10      30.24S WCI  26
MICHIGAN CITY* NOT AVBL
RENSSELAER*    NOT AVBL
VALPARAISO     CLOUDY    30  26  85 S6        30.25S WCI  24
$$

LMZ740>746-211300-
SOUTHERN LAKE MICHIGAN

STATION/POSITION TIME  SKY/WX   TEMP WIND        PRES    VSBY
                                AIR  DIR/SP/G
                 (UTC)          (F)  (DEG/KT/KT) (MB)    (MI)
HARRISON CRIB    1200            33  180/ 13/ 15   N/A
BURNHAM HARBOR   1200            33  190/  7       N/A
CALUMET HARBOR   1200            33  180/  8/ 11 1022.3R
BURNS HARBOR     NOT AVBL
MICHIGAN CITY    NOT AVBL
$$

ABBREVIATIONS USED IN REMARKS
   TC - TEMPERATURE IN CELSIUS
  WCI - WIND CHILL INDEX
   HX - HEAT INDEX
  VSB - VISIBILITY
$$



USA.gov is the U.S. government's official web portal to all federal, state and local government web resources and services.